GW2516 Weather Reports


time (UTC)temp
F
wind
direction
speed
knots
gust
knots
rain 1hr
in
rain 24hr
in
rain mn
in
humidity
%
barometer
mb
20260506002524 63 246 0.0 3.5 0.00 0.00 0.00 72 1015.2
20260506002024 62 312 1.7 3.5 0.00 0.00 0.00 72 1015.4
20260506001543 63 310 1.7 3.5 0.00 0.00 0.00 72 1015.4
20260506001024 62 0 0.0 3.5 0.00 0.00 0.00 72 1015.3
20260506000526 62 0 1.7 3.5 0.00 0.00 0.00 72 1015.5
20260506000112 62 257 2.6 3.5 0.00 0.00 0.00 73 1015.5
20260505235525 62 276 0.9 4.3 0.00 0.00 0.00 74 1015.4
20260505235024 62 67 1.7 6.1 0.00 0.00 0.00 73 1015.5
20260505234548 62 273 2.6 6.1 0.00 0.00 0.00 73 1015.6
20260505234024 62 53 1.7 4.3 0.00 0.00 0.00 74 1015.6
20260505233526 62 56 1.7 4.3 0.00 0.00 0.00 73 1015.7
20260505233038 62 316 0.9 6.1 0.00 0.00 0.00 73 1015.6
20260505232526 62 32 1.7 6.1 0.00 0.00 0.00 73 1015.7
20260505232024 62 332 1.7 6.1 0.00 0.00 0.00 72 1015.7
20260505231540 62 32 0.9 4.3 0.00 0.00 0.00 73 1015.7
20260505231024 62 326 0.9 5.2 0.00 0.00 0.00 74 1015.6
20260505230524 62 340 1.7 5.2 0.00 0.00 0.00 74 1015.7
20260505230059 62 309 1.7 5.2 0.00 0.00 0.00 74 1015.7
20260505225528 61 348 1.7 5.2 0.00 0.00 0.00 74 1015.7
20260505225024 61 309 3.5 6.1 0.00 0.00 0.00 74 1015.8
20260505224544 62 308 2.6 6.1 0.00 0.00 0.00 74 1015.8
20260505224025 62 330 3.5 5.2 0.00 0.00 0.00 74 1015.8
20260505223524 62 314 0.9 4.3 0.00 0.00 0.00 74 1015.9
20260505223041 62 326 2.6 6.1 0.00 0.00 0.00 73 1015.8
20260505222526 62 311 0.9 6.1 0.00 0.00 0.00 73 1016.0
20260505222025 62 322 1.7 6.1 0.00 0.00 0.00 72 1016.0
20260505221546 62 341 0.0 4.3 0.00 0.00 0.00 73 1015.9
20260505221024 62 0 1.7 7.0 0.00 0.00 0.00 72 1016.0
20260505220524 62 193 1.7 7.0 0.00 0.00 0.00 73 1015.9
20260505220040 63 263 0.9 4.3 0.00 0.00 0.00 72 1015.9
20260505215524 63 0 0.9 4.3 0.00 0.00 0.00 71 1015.9
20260505215024 63 0 0.0 4.3 0.00 0.00 0.00 72 1016.0
20260505214543 62 0 0.0 4.3 0.00 0.00 0.00 72 1016.1
20260505214025 63 332 2.6 4.3 0.00 0.00 0.00 71 1016.1
20260505213524 63 199 0.0 3.5 0.00 0.00 0.00 71 1016.1
20260505213043 63 193 1.7 3.5 0.00 0.00 0.00 72 1016.0
20260505212524 63 219 0.0 4.3 0.00 0.00 0.00 72 1016.0
20260505212024 63 200 1.7 4.3 0.00 0.00 0.00 72 1016.1
20260505211542 63 259 0.0 1.7 0.00 0.00 0.00 72 1016.2
20260505211026 62 0 0.0 4.3 0.00 0.00 0.00 74 1016.2
20260505210527 62 84 2.6 4.3 0.00 0.00 0.00 74 1016.3
20260505210041 62 323 0.0 2.6 0.00 0.00 0.00 74 1016.3
20260505205525 61 0 0.0 2.6 0.00 0.00 0.00 75 1016.4
20260505205026 61 0 0.0 2.6 0.00 0.00 0.00 76 1016.4
20260505204547 61 274 1.7 3.5 0.00 0.00 0.00 75 1016.5
20260505204024 61 25 0.9 3.5 0.00 0.00 0.00 75 1016.5
20260505203607 61 300 0.9 3.5 0.00 0.00 0.00 75 1016.4
20260505203054 61 0 0.0 3.5 0.00 0.00 0.00 76 1016.4
20260505202524 60 0 0.0 3.5 0.00 0.00 0.00 76 1016.4
20260505202024 60 108 1.7 3.5 0.00 0.00 0.00 76 1016.5
20260505201548 61 32 0.9 4.3 0.00 0.00 0.00 76 1016.5
20260505201024 61 115 0.9 5.2 0.00 0.00 0.00 76 1016.6
20260505200524 60 91 2.6 5.2 0.00 0.00 0.00 77 1016.5
20260505200045 61 8 2.6 5.2 0.00 0.00 0.00 76 1016.5
20260505195523 61 318 0.9 3.5 0.00 0.00 0.00 76 1016.5
20260505195024 61 311 0.9 3.5 0.00 0.00 0.00 75 1016.6
20260505194553 61 0 0.0 3.5 0.00 0.00 0.00 75 1016.6
20260505194026 61 4 1.7 3.5 0.00 0.00 0.00 74 1016.7
20260505193525 61 231 0.0 1.7 0.00 0.00 0.00 75 1016.6
20260505193040 61 220 0.0 3.5 0.00 0.00 0.00 74 1016.7
20260505192524 61 0 0.0 3.5 0.00 0.00 0.00 76 1016.7
20260505192024 60 143 0.9 3.5 0.00 0.00 0.00 76 1016.7
20260505191553 60 0 0.0 3.5 0.00 0.00 0.00 77 1016.8
20260505191025 59 176 0.9 3.5 0.00 0.00 0.00 78 1016.7
20260505190527 59 214 0.0 1.7 0.00 0.00 0.00 79 1016.7
20260505190046 59 274 0.9 3.5 0.00 0.00 0.00 78 1016.7
20260505185524 59 211 0.9 3.5 0.00 0.00 0.00 79 1016.7
20260505185027 58 225 0.9 3.5 0.00 0.00 0.00 78 1016.6
20260505184543 58 212 0.0 2.6 0.00 0.00 0.00 79 1016.7
20260505184024 58 225 0.9 2.6 0.00 0.00 0.00 79 1016.8
20260505183525 58 0 0.0 2.6 0.00 0.00 0.00 78 1016.7
20260505183042 58 0 0.0 2.6 0.00 0.00 0.00 79 1016.7
20260505182523 58 266 0.0 3.5 0.00 0.00 0.00 79 1016.7
20260505182024 58 0 0.0 3.5 0.00 0.00 0.00 79 1016.7
20260505181540 58 214 0.0 2.6 0.00 0.00 0.00 79 1016.7
20260505181025 58 203 0.0 2.6 0.00 0.00 0.00 79 1016.7
20260505180524 58 261 0.9 2.6 0.00 0.00 0.00 78 1016.6
20260505180048 59 240 0.0 2.6 0.00 0.00 0.00 79 1016.6
20260505175525 58 0 0.0 2.6 0.00 0.00 0.00 78 1016.6
20260505175024 58 0 0.0 1.7 0.00 0.00 0.00 79 1016.5
20260505174543 58 0 0.0 1.7 0.00 0.00 0.00 79 1016.5
20260505174024 58 209 0.0 2.6 0.00 0.00 0.00 79 1016.6
20260505173526 58 212 0.9 2.6 0.00 0.00 0.00 79 1016.6
20260505173044 58 0 0.0 0.9 0.00 0.00 0.00 78 1016.5
20260505172525 58 136 0.0 3.5 0.00 0.00 0.00 79 1016.5
20260505172023 58 0 1.7 3.5 0.00 0.00 0.00 78 1016.4
20260505171544 59 192 0.0 1.7 0.00 0.00 0.00 78 1016.4
20260505171024 59 180 0.0 3.5 0.00 0.00 0.00 78 1016.3
20260505170525 58 195 0.9 3.5 0.00 0.00 0.00 78 1016.3
20260505170040 58 208 0.9 3.5 0.00 0.00 0.00 78 1016.3
20260505165524 58 0 0.9 3.5 0.00 0.00 0.00 78 1016.3
20260505165024 58 167 0.0 4.3 0.00 0.00 0.00 80 1016.2
20260505164536 57 0 0.9 4.3 0.00 0.00 0.00 81 1016.3
20260505164024 57 211 1.7 3.5 0.00 0.00 0.00 81 1016.2
20260505163523 57 0 0.0 5.2 0.00 0.00 0.00 82 1016.2
20260505163043 57 200 1.7 5.2 0.00 0.00 0.00 82 1016.2
20260505162524 57 194 0.0 5.2 0.00 0.00 0.00 82 1016.1
20260505162023 56 238 0.9 4.3 0.00 0.00 0.00 83 1016.2
20260505161542 56 200 2.6 4.3 0.00 0.00 0.00 82 1016.1
20260505161025 56 193 1.7 4.3 0.00 0.00 0.00 82 1016.1
20260505160524 56 0 0.0 0.9 0.00 0.00 0.00 83 1016.1
20260505153040 55 0 0.0 4.3 0.00 0.00 0.00 85 1016.0
20260505152524 55 0 0.9 4.3 0.00 0.00 0.00 85 1016.0
20260505152028 55 198 0.0 2.6 0.00 0.00 0.00 85 1016.0
20260505151544 55 0 0.0 4.3 0.00 0.00 0.00 86 1016.0
20260505151026 55 0 0.9 4.3 0.00 0.00 0.00 86 1016.0
20260505150526 54 0 0.9 5.2 0.00 0.00 0.00 86 1015.9
20260505150105 54 186 1.7 5.2 0.00 0.00 0.00 86 1015.9
20260505140525 54 194 1.7 3.5 0.00 0.00 0.00 86 1015.4
20260505125026 54 0 0.0 1.7 0.00 0.00 0.00 86 1015.0
20260505124552 54 0 0.0 0.0 0.00 0.00 0.00 85 1015.0
20260505124024 54 0 0.0 1.7 0.00 0.00 0.00 85 1014.9
20260505123525 54 0 0.0 1.7 0.00 0.00 0.00 85 1014.9
20260505123102 54 205 0.0 1.7 0.00 0.00 0.00 85 1014.9
20260505122525 54 220 0.0 1.7 0.00 0.00 0.00 85 1014.9
20260505122026 54 0 0.0 1.7 0.00 0.00 0.00 85 1014.9
20260505121613 54 0 0.0 1.7 0.00 0.00 0.00 85 1015.0
20260505121026 54 0 0.0 0.9 0.00 0.00 0.00 85 1015.0
20260505120524 54 204 0.0 1.7 0.00 0.00 0.00 85 1014.9
20260505120042 54 0 0.0 1.7 0.00 0.00 0.00 85 1014.9
20260505115525 54 200 0.0 1.7 0.00 0.00 0.00 85 1014.8
20260505115026 55 205 0.0 1.7 0.00 0.00 0.00 85 1014.8
20260505114542 55 206 0.0 1.7 0.00 0.00 0.00 85 1014.8
20260505114024 55 0 0.9 1.7 0.00 0.00 0.00 85 1014.8
20260505113526 55 0 0.0 1.7 0.00 0.00 0.00 85 1014.8
20260505113036 55 0 0.0 1.7 0.00 0.00 0.00 85 1014.8
20260505112528 55 196 0.0 1.7 0.00 0.00 0.00 84 1014.8
20260505112024 55 0 0.0 0.9 0.00 0.00 0.00 85 1014.8
20260505111548 54 0 0.0 0.9 0.00 0.00 0.00 85 1014.9
20260505111024 54 210 0.0 0.0 0.00 0.00 0.00 85 1014.8
20260505110525 54 0 0.0 0.0 0.00 0.00 0.00 85 1014.7
20260505102025 54 0 0.0 1.7 0.00 0.00 0.00 85 1014.3
20260505101545 54 0 0.0 1.7 0.00 0.00 0.00 85 1014.3
20260505101025 54 0 0.0 0.0 0.00 0.00 0.00 85 1014.3
20260505100524 54 0 0.0 1.7 0.00 0.00 0.00 85 1014.3
20260505100108 54 0 0.0 1.7 0.00 0.00 0.00 84 1014.3
20260505095524 55 212 0.0 1.7 0.00 0.00 0.00 84 1014.3
20260505095025 55 0 0.0 0.0 0.00 0.00 0.00 84 1014.3
20260505094544 55 0 0.0 0.9 0.00 0.00 0.00 84 1014.2
20260505094023 55 0 0.0 0.9 0.00 0.00 0.00 84 1014.2
20260505093526 55 0 0.0 0.9 0.00 0.00 0.00 84 1014.2
20260505093040 55 0 0.0 1.7 0.00 0.00 0.00 84 1014.2
20260505092524 55 0 0.0 1.7 0.00 0.00 0.00 84 1014.2
20260505092023 55 0 0.0 1.7 0.00 0.00 0.00 84 1014.1
20260505091555 55 0 0.0 1.7 0.00 0.00 0.00 85 1014.1
20260505091024 55 0 0.0 0.0 0.00 0.00 0.00 85 1014.1
20260505090525 55 0 0.0 0.0 0.00 0.00 0.00 85 1013.9
20260505090053 55 0 0.0 0.0 0.00 0.00 0.00 85 1013.8
20260505085523 56 0 0.0 0.0 0.00 0.00 0.00 85 1013.8
20260505085028 56 0 0.0 0.0 0.00 0.00 0.00 85 1013.8
20260505084547 56 0 0.0 1.7 0.00 0.00 0.00 84 1013.8
20260505084025 56 0 0.0 1.7 0.00 0.00 0.00 84 1013.8
20260505083522 56 0 0.0 1.7 0.00 0.00 0.00 84 1013.8
20260505083049 56 325 0.0 2.6 0.00 0.00 0.00 84 1013.7
20260505082527 56 15 0.9 2.6 0.00 0.00 0.00 84 1013.6
20260505082023 57 19 0.0 1.7 0.00 0.00 0.00 83 1013.5
20260505081545 57 0 0.0 0.9 0.00 0.00 0.00 83 1013.5
20260505081024 57 330 0.0 1.7 0.00 0.00 0.00 83 1013.5
20260505080623 57 335 0.9 2.6 0.00 0.00 0.00 83 1013.4
20260505080049 57 316 0.0 2.6 0.00 0.00 0.00 82 1013.4
20260505075523 57 309 1.7 3.5 0.00 0.00 0.00 82 1013.5
20260505075026 57 0 1.7 3.5 0.00 0.00 0.00 81 1013.3
20260505074543 58 0 0.0 0.0 0.00 0.00 0.00 81 1013.3
20260505074027 58 0 0.0 0.0 0.00 0.00 0.00 80 1013.2
20260505073525 58 0 0.0 0.0 0.00 0.00 0.00 80 1013.1
20260505073047 58 0 0.0 0.9 0.00 0.00 0.00 80 1013.1
20260505072523 58 0 0.0 3.5 0.00 0.00 0.00 80 1013.0
20260505072027 58 0 0.0 3.5 0.00 0.00 0.00 80 1013.0
20260505071542 58 203 1.7 3.5 0.00 0.00 0.00 79 1012.9
20260505071023 59 199 0.9 3.5 0.00 0.00 0.00 79 1012.8
20260505070526 59 218 1.7 4.3 0.00 0.00 0.00 79 1012.8
20260505070045 59 198 0.9 4.3 0.00 0.00 0.00 79 1012.8
20260505065526 59 231 1.7 4.3 0.00 0.00 0.00 78 1012.7
20260505065022 59 212 1.7 4.3 0.00 0.00 0.00 78 1012.8
20260505064540 60 203 0.0 1.7 0.00 0.00 0.00 78 1012.6
20260505064023 60 0 0.0 2.6 0.00 0.00 0.00 77 1012.5
20260505063523 60 201 0.9 2.6 0.00 0.00 0.00 77 1012.5
20260505063048 60 200 0.0 4.3 0.00 0.00 0.00 76 1012.5
20260505062526 61 203 1.7 4.3 0.00 0.00 0.00 76 1012.4
20260505062030 61 197 0.9 3.5 0.00 0.00 0.00 76 1012.3
20260505061548 61 0 0.0 0.0 0.00 0.00 0.00 76 1012.3
20260505061031 62 0 0.0 0.0 0.00 0.00 0.00 76 1012.2
20260505060526 62 0 0.0 0.0 0.00 0.00 0.00 75 1012.1
20260505060045 62 0 0.0 0.0 0.00 0.00 0.00 75 1012.1
20260505055528 62 0 0.0 0.0 0.00 0.00 0.00 75 1012.0
20260505055026 62 0 0.0 0.0 0.00 0.00 0.00 74 1012.0
20260505054612 63 0 0.0 2.6 0.00 0.00 0.00 73 1012.0
20260505054025 63 0 0.0 2.6 0.00 0.00 0.00 73 1012.0
20260505053523 63 337 0.9 2.6 0.00 0.00 0.00 72 1012.0
20260505053047 64 0 0.0 2.6 0.00 0.00 0.00 72 1012.0
20260505052523 64 261 0.9 2.6 0.00 0.00 0.00 71 1012.0
20260505052028 64 269 0.0 4.3 0.00 0.00 0.00 71 1011.9
20260505051544 64 264 0.9 4.3 0.00 0.00 0.00 71 1011.9
20260505051024 65 248 0.9 5.2 0.00 0.00 0.00 70 1011.9
20260505050527 65 333 1.7 5.2 0.00 0.00 0.00 70 1011.8
20260505041549 67 185 2.6 5.2 0.00 0.00 0.00 70 1011.0
20260505041023 68 221 1.7 5.2 0.00 0.00 0.00 71 1010.9
20260505040524 68 198 2.6 5.2 0.00 0.00 0.00 71 1010.9
20260505040044 68 207 2.6 5.2 0.00 0.00 0.00 72 1010.7
20260505035524 68 214 2.6 4.3 0.00 0.00 0.00 72 1010.6
20260505035023 68 195 0.9 3.5 0.00 0.00 0.00 72 1010.5
20260505034538 68 189 0.0 4.3 0.00 0.00 0.00 72 1010.4
20260505034025 68 0 0.9 4.3 0.00 0.00 0.00 71 1010.4
20260505033523 68 193 0.9 3.5 0.00 0.00 0.00 71 1010.3
20260505033036 68 203 1.7 3.5 0.00 0.00 0.00 71 1010.4
20260505032527 69 192 0.9 4.3 0.00 0.00 0.00 71 1010.2
20260505032024 69 203 0.9 4.3 0.00 0.00 0.00 70 1010.1
20260505031543 69 203 1.7 4.3 0.00 0.00 0.00 70 1010.2
20260505031023 69 219 0.9 4.3 0.00 0.00 0.00 69 1010.1
20260505030525 69 195 0.9 7.8 0.00 0.00 0.00 69 1010.0
20260505030055 70 184 1.7 7.8 0.00 0.00 0.00 69 1010.0
20260505025524 70 204 4.3 7.8 0.00 0.00 0.00 68 1009.9
20260505025023 70 191 3.5 7.8 0.00 0.00 0.00 68 1009.9
20260505024541 70 188 2.6 7.0 0.00 0.00 0.00 67 1009.9
20260505024023 71 183 2.6 7.0 0.00 0.00 0.00 66 1009.8
20260505023523 71 193 1.7 7.0 0.00 0.00 0.00 66 1009.8
20260505023040 71 210 3.5 7.0 0.00 0.00 0.00 65 1009.9
20260505022523 72 195 2.6 5.2 0.00 0.00 0.00 64 1009.8
20260505022026 73 155 0.9 5.2 0.00 0.00 0.00 63 1009.8
20260505021551 73 209 1.7 4.3 0.00 0.00 0.00 62 1009.8
20260505021024 74 218 0.0 7.0 0.00 0.00 0.00 61 1009.9
20260505020525 73 199 0.9 7.0 0.00 0.00 0.00 62 1009.9
20260505020049 74 207 2.6 7.0 0.00 0.00 0.00 60 1009.9
20260505015526 74 200 0.0 6.1 0.00 0.00 0.00 61 1009.9
20260505015026 74 195 1.7 6.1 0.00 0.00 0.00 61 1010.0
20260505014543 74 213 1.7 6.1 0.00 0.00 0.00 60 1009.9
20260505014025 74 210 1.7 5.2 0.00 0.00 0.00 61 1009.9
20260505013525 74 174 2.6 5.2 0.00 0.00 0.00 59 1009.9
20260505013042 74 205 2.6 7.0 0.00 0.00 0.00 60 1010.0
20260505012525 74 224 2.6 7.0 0.00 0.00 0.00 60 1010.2
20260505012025 74 233 1.7 7.0 0.00 0.00 0.00 60 1010.1
20260505011541 74 223 4.3 8.7 0.00 0.00 0.00 59 1010.1
20260505011025 75 248 1.7 8.7 0.00 0.00 0.00 58 1010.2
20260505010525 75 153 0.9 8.7 0.00 0.00 0.00 59 1010.2
20260505005526 75 208 5.2 8.7 0.00 0.00 0.00 58 1010.1
20260505005028 75 276 1.7 5.2 0.00 0.00 0.00 58 1010.2
20260505004545 75 194 0.9 5.2 0.00 0.00 0.00 57 1010.3
20260505004024 75 213 1.7 5.2 0.00 0.00 0.00 57 1010.3
20260505003524 75 237 0.9 7.0 0.00 0.00 0.00 57 1010.3
20260505003048 75 189 3.5 7.0 0.00 0.00 0.00 58 1010.4